sat.trackr.live / text

‹ back to catalog

IRIDIUM 125

NORAD 42964 · 2017-061K

PAYLOAD ACTIVE UNKNOWN

§ Identity

Operator
Country
US
Launch date
2017-10-09
Launch site
AFWTR
Launch vehicle
Mass (kg)
RCS (m²)

Purposes: comms

External: N2YO · Heavens-Above · Gunter

§ Orbital elements

Epoch: 2026-05-25T03:41:30.792768Z

Period
100.40 min
Inclination
86.3992°
Eccentricity
0.0002722
Mean motion
14.34217553 rev/d
Perigee alt
775.7 km
Apogee alt
779.6 km
Semi-major
7,155.8 km
B*
1.2157e-5
RAAN
35.0069°
Arg perigee
82.2422°
Mean anomaly
277.9083°
Rev number
45,155

§ Raw data

IRIDIUM 1251 42964U 17061K   26145.15382862  .00000054  00000+0  12157-4 0  99912 42964  86.3992  35.0069 0002722  82.2422 277.9083 14.34217553451551

JSON: /api/v1/satellites/42964 · /tle

For live sub-satellite position, see the globe view (requires WebGL).

§ Visibility from observer

Set your observer location to see the next 7 days of passes ≥ 10°. The values pass through the URL so the page stays shareable.

No JS? Fill the form by hand. The geolocation button needs JavaScript.